DW7649 Weather Reports


Display with metric or nautical units.
time (UTC)temp
F
wind
direction
speed
MPH
gust
MPH
rain 1hr
in
rain 24hr
in
rain mn
in
humidity
%
barometer
mb
20190418225604 81 154 3.0 9.0 0.00 0.00 0.00 36 1008.1
20190418224704 82 137 5.0 11.0 0.00 0.00 0.00 37 1008.2
20190418223804 82 136 3.0 11.0 0.00 0.00 0.00 37 1008.3
20190418222904 82 140 2.0 7.0 0.00 0.00 0.00 40 1008.3
20190418222004 82 129 4.0 11.0 0.00 0.00 0.00 39 1008.4
20190418221104 82 141 3.0 7.0 0.00 0.00 0.00 40 1008.5
20190418220204 82 143 4.0 8.0 0.00 0.00 0.00 39 1008.6
20190418215304 82 137 3.0 9.0 0.00 0.00 0.00 38 1008.8
20190418214404 82 142 4.0 9.0 0.00 0.00 0.00 38 1008.9
20190418213504 82 174 2.0 6.0 0.00 0.00 0.00 38 1009.2
20190418212604 82 141 2.0 7.0 0.00 0.00 0.00 38 1009.5
20190418211704 82 152 2.0 6.0 0.00 0.00 0.00 38 1009.6
20190418210804 82 144 3.0 8.0 0.00 0.00 0.00 37 1009.6
20190418205904 82 131 3.0 12.0 0.00 0.00 0.00 37 1009.9
20190418205004 82 151 2.0 12.0 0.00 0.00 0.00 38 1010.0
20190418204104 81 163 5.0 11.0 0.00 0.00 0.00 37 1010.0
20190418203204 81 178 3.0 11.0 0.00 0.00 0.00 38 1010.2
20190418202304 81 183 3.0 12.0 0.00 0.00 0.00 38 1010.3
20190418201404 80 181 4.0 11.0 0.00 0.00 0.00 38 1010.6
20190418200504 80 177 3.0 9.0 0.00 0.00 0.00 39 1010.9
20190418195604 79 175 3.0 12.0 0.00 0.00 0.00 41 1011.2
20190418194704 78 181 3.0 8.0 0.00 0.00 0.00 43 1011.4
20190418193804 77 194 3.0 9.0 0.00 0.00 0.00 43 1011.7
20190418192903 77 186 3.0 10.0 0.00 0.00 0.00 45 1011.9
20190418192004 76 194 3.0 8.0 0.00 0.00 0.00 45 1012.1
20190418191104 76 210 3.0 9.0 0.00 0.00 0.00 47 1012.2
20190418190204 75 146 2.0 6.0 0.00 0.00 0.00 46 1012.3
20190418185304 75 135 3.0 7.0 0.00 0.00 0.00 50 1012.8
20190418184404 74 128 2.0 6.0 0.00 0.00 0.00 50 1013.0
20190418183504 73 144 2.0 6.0 0.00 0.00 0.00 51 1013.0
20190418182604 72 190 2.0 7.0 0.00 0.00 0.00 53 1013.1
20190418181704 72 144 3.0 8.0 0.00 0.00 0.00 51 1013.5
20190418180804 71 161 3.0 11.0 0.00 0.00 0.00 55 1013.7
20190418175904 70 154 2.0 9.0 0.00 0.00 0.00 53 1013.6
20190418175004 69 191 3.0 10.0 0.00 0.00 0.00 56 1013.9
20190418174103 67 170 3.0 10.0 0.00 0.00 0.00 58 1013.9
20190418173204 66 157 2.0 7.0 0.00 0.00 0.00 59 1014.0
20190418172304 66 132 2.0 6.0 0.00 0.00 0.00 58 1014.0
20190418171403 65 207 2.0 5.0 0.00 0.00 0.00 59 1014.4
20190418170503 65 238 3.0 5.0 0.00 0.00 0.00 57 1014.7
20190418165603 66 211 2.0 6.0 0.00 0.00 0.00 58 1014.8
20190418164703 66 230 3.0 8.0 0.00 0.00 0.00 55 1014.9
20190418163804 66 227 3.0 8.0 0.00 0.00 0.00 55 1014.9
20190418162903 67 146 1.0 4.0 0.00 0.00 0.00 57 1014.9
20190418162003 67 140 2.0 5.0 0.00 0.00 0.00 56 1014.9
20190418161103 68 127 2.0 6.0 0.00 0.00 0.00 55 1014.8
20190418160204 68 189 2.0 7.0 0.00 0.00 0.00 56 1015.0
20190418155303 68 196 2.0 6.0 0.00 0.00 0.00 56 1015.2
20190418154404 68 146 2.0 7.0 0.00 0.00 0.00 57 1015.3
20190418153504 67 138 2.0 6.0 0.00 0.00 0.00 59 1015.3
20190418152603 66 146 2.0 5.0 0.00 0.00 0.00 59 1015.4
20190418151704 65 203 1.0 6.0 0.00 0.00 0.00 59 1015.6
20190418150803 64 146 2.0 6.0 0.00 0.00 0.00 61 1015.7
20190418145904 63 133 2.0 5.0 0.00 0.00 0.00 62 1015.9
20190418145004 62 141 2.0 5.0 0.00 0.00 0.00 63 1015.9
20190418144103 62 233 2.0 5.0 0.00 0.00 0.00 63 1016.2
20190418143204 61 203 2.0 4.0 0.00 0.00 0.00 64 1016.4
20190418142303 60 235 2.0 5.0 0.00 0.00 0.00 66 1016.4
20190418141404 60 243 2.0 4.0 0.00 0.00 0.00 66 1016.3
20190418140503 59 207 1.0 4.0 0.00 0.00 0.00 68 1016.3
20190418135604 59 161 2.0 4.0 0.00 0.00 0.00 68 1016.3
20190418134703 59 142 2.0 3.0 0.00 0.00 0.00 69 1016.4
20190418133804 58 157 1.0 3.0 0.00 0.00 0.00 70 1016.2
20190418132903 57 190 1.0 3.0 0.00 0.00 0.00 70 1016.1
20190418132004 57 139 0.0 3.0 0.00 0.00 0.00 72 1016.1
20190418131104 57 113 0.0 2.0 0.00 0.00 0.00 73 1016.3
20190418130203 56 113 1.0 2.0 0.00 0.00 0.00 72 1016.3
20190418125304 56 113 0.0 1.0 0.00 0.00 0.00 73 1016.4
20190418124403 56 113 0.0 1.0 0.00 0.00 0.00 73 1016.5
20190418123503 56 113 0.0 1.0 0.00 0.00 0.00 73 1016.6
20190418122603 56 0 0.0 0.0 0.00 0.00 0.00 73 1016.7
20190418121703 56 113 0.0 1.0 0.00 0.00 0.00 73 1016.7
20190418120803 55 113 0.0 1.0 0.00 0.00 0.00 75 1016.7
20190418115904 55 113 0.0 1.0 0.00 0.00 0.00 74 1016.6
20190418115003 54 0 0.0 0.0 0.00 0.00 0.00 75 1016.5
20190418114103 54 112 0.0 2.0 0.00 0.00 0.00 74 1016.5
20190418113203 54 110 0.0 1.0 0.00 0.00 0.00 75 1016.6
20190418112305 53 106 0.0 2.0 0.00 0.00 0.00 74 1016.7
20190418111403 53 106 0.0 2.0 0.00 0.00 0.00 75 1016.7
20190418110503 53 0 0.0 0.0 0.00 0.00 0.00 75 1016.5
20190418105603 53 106 0.0 2.0 0.00 0.00 0.00 75 1016.5
20190418104704 52 0 0.0 0.0 0.00 0.00 0.00 75 1016.4
20190418103804 52 106 0.0 1.0 0.00 0.00 0.00 75 1016.5
20190418102903 52 106 0.0 1.0 0.00 0.00 0.00 75 1016.4
20190418102004 52 0 0.0 0.0 0.00 0.00 0.00 75 1016.6
20190418101103 52 0 0.0 0.0 0.00 0.00 0.00 75 1016.4
20190418100203 52 106 0.0 1.0 0.00 0.00 0.00 75 1016.4
20190418095305 52 106 0.0 2.0 0.00 0.00 0.00 76 1016.5
20190418094404 51 0 0.0 0.0 0.00 0.00 0.00 75 1016.4
20190418093503 51 0 0.0 0.0 0.00 0.00 0.00 75 1016.2
20190418092604 51 0 0.0 0.0 0.00 0.00 0.00 75 1016.3
20190418091704 51 0 0.0 0.0 0.00 0.00 0.00 76 1016.3
20190418090803 51 0 0.0 0.0 0.00 0.00 0.00 73 1016.2
20190418085903 51 0 0.0 0.0 0.00 0.00 0.00 72 1016.2
20190418085004 52 0 0.0 0.0 0.00 0.00 0.00 72 1016.3
20190418084103 52 0 0.0 0.0 0.00 0.00 0.00 71 1016.3
20190418083203 52 0 0.0 0.0 0.00 0.00 0.00 70 1016.5
20190418082304 53 0 0.0 0.0 0.00 0.00 0.00 70 1016.5
20190418081403 53 0 0.0 0.0 0.00 0.00 0.00 70 1016.7
20190418080503 53 0 0.0 0.0 0.00 0.00 0.00 69 1016.9
20190418075604 53 0 0.0 0.0 0.00 0.00 0.00 68 1016.9
20190418074703 54 0 0.0 0.0 0.00 0.00 0.00 68 1016.9
20190418073804 54 0 0.0 0.0 0.00 0.00 0.00 69 1017.0
20190418072903 54 0 0.0 0.0 0.00 0.00 0.00 68 1017.1
20190418072004 54 0 0.0 0.0 0.00 0.00 0.00 68 1017.3
20190418071103 54 0 0.0 0.0 0.00 0.00 0.00 67 1017.3
20190418070203 54 106 0.0 2.0 0.00 0.00 0.00 68 1017.3
20190418065303 54 106 0.0 2.0 0.00 0.00 0.00 66 1017.3
20190418064403 54 106 0.0 2.0 0.00 0.00 0.00 65 1017.3
20190418063503 54 107 1.0 2.0 0.00 0.00 0.00 65 1017.3
20190418062603 54 108 1.0 2.0 0.00 0.00 0.00 65 1017.6
20190418061703 55 111 0.0 2.0 0.00 0.00 0.00 65 1017.8
20190418060804 55 111 0.0 2.0 0.00 0.00 0.00 65 1017.8
20190418055903 55 0 0.0 0.0 0.00 0.00 0.00 64 1018.0
20190418055004 55 0 0.0 0.0 0.00 0.00 0.00 66 1018.2
20190418054103 55 111 0.0 1.0 0.00 0.00 0.00 65 1018.2
20190418053203 55 111 0.0 1.0 0.00 0.00 0.00 65 1018.4
20190418052303 56 0 0.0 0.0 0.00 0.00 0.00 62 1018.5
20190418051403 56 111 0.0 1.0 0.00 0.00 0.00 67 1018.3
20190418050503 56 111 0.0 2.0 0.00 0.00 0.00 63 1018.1
20190418045603 56 111 0.0 1.0 0.00 0.00 0.00 63 1018.3
20190418044703 56 0 0.0 0.0 0.00 0.00 0.00 65 1018.3
20190418043803 57 111 0.0 1.0 0.00 0.00 0.00 61 1018.3
20190418042903 57 0 0.0 0.0 0.00 0.00 0.00 61 1018.5
20190418042003 57 111 0.0 1.0 0.00 0.00 0.00 64 1018.5
20190418041103 58 108 1.0 3.0 0.00 0.00 0.00 64 1018.3
20190418040203 58 99 0.0 2.0 0.00 0.00 0.00 64 1018.4
20190418035303 58 0 0.0 0.0 0.00 0.00 0.00 63 1018.4
20190418034403 59 99 0.0 1.0 0.00 0.00 0.00 63 1018.3
20190418033503 59 107 1.0 4.0 0.00 0.00 0.00 63 1018.1
20190418032603 59 123 1.0 4.0 0.00 0.00 0.00 60 1017.9
20190418031703 59 124 0.0 2.0 0.00 0.00 0.00 61 1018.1
20190418030803 60 125 0.0 2.0 0.00 0.00 0.00 60 1018.2
20190418025903 60 126 0.0 1.0 0.00 0.00 0.00 60 1018.2
20190418025003 60 126 0.0 1.0 0.00 0.00 0.00 59 1018.2
20190418024103 61 126 0.0 2.0 0.00 0.00 0.00 59 1018.2
20190418023203 62 126 0.0 2.0 0.00 0.00 0.00 58 1018.3
20190418022303 62 126 0.0 2.0 0.00 0.00 0.00 57 1018.1
20190418021403 62 124 0.0 2.0 0.00 0.00 0.00 57 1018.1
20190418020503 63 106 2.0 4.0 0.00 0.00 0.00 54 1017.9
20190418015603 63 116 2.0 5.0 0.00 0.00 0.00 54 1018.1
20190418014703 63 110 2.0 4.0 0.00 0.00 0.00 54 1017.8
20190418013803 64 113 2.0 4.0 0.00 0.00 0.00 53 1017.9
20190418012903 64 116 1.0 5.0 0.00 0.00 0.00 53 1017.7
20190418012003 64 115 1.0 3.0 0.00 0.00 0.00 53 1017.8
20190418011103 65 114 2.0 6.0 0.00 0.00 0.00 53 1017.8
20190418010203 65 121 2.0 7.0 0.00 0.00 0.00 51 1017.7
20190418005303 66 117 1.0 3.0 0.00 0.00 0.00 51 1017.4
20190418004403 66 113 2.0 4.0 0.00 0.00 0.00 51 1017.1
20190418003503 66 110 2.0 5.0 0.00 0.00 0.00 50 1017.0
20190418002603 67 112 2.0 4.0 0.00 0.00 0.00 49 1017.0
20190418001703 67 111 2.0 5.0 0.00 0.00 0.00 50 1016.9
20190418000803 68 114 2.0 4.0 0.00 0.00 0.00 49 1016.9
20190417235903 68 107 1.0 5.0 0.00 0.00 0.00 48 1016.7
20190417235003 69 108 2.0 5.0 0.00 0.00 0.00 47 1016.7
20190417234103 69 103 1.0 3.0 0.00 0.00 0.00 46 1016.6
20190417233203 70 99 2.0 5.0 0.00 0.00 0.00 45 1016.5
20190417232303 70 101 2.0 5.0 0.00 0.00 0.00 44 1016.3
20190417231403 71 101 2.0 5.0 0.00 0.00 0.00 43 1016.3
20190417230503 72 98 1.0 5.0 0.00 0.00 0.00 43 1016.2